EW8311 Weather Reports


Display with metric or nautical units.
time (UTC)temp
F
wind
direction
speed
MPH
gust
MPH
rain 1hr
in
rain 24hr
in
rain mn
in
humidity
%
barometer
mb
20210802084542 79 5 0.0 0.0 0.00 0.00 0.00 61 1008.7
20210802083049 79 4 0.0 0.0 0.00 0.00 0.00 61 1008.9
20210802081550 79 5 0.0 0.0 0.00 0.00 0.00 64 1008.8
20210802080027 81 5 0.0 0.0 0.00 0.00 0.00 60 1008.9
20210802074546 80 344 0.0 1.0 0.00 0.00 0.00 56 1009.0
20210802073042 80 300 0.0 0.0 0.00 0.00 0.00 59 1008.8
20210802071523 80 300 0.0 1.0 0.00 0.00 0.00 62 1008.8
20210802070020 80 300 0.0 0.0 0.00 0.00 0.00 60 1008.9
20210802064532 81 300 0.0 2.0 0.00 0.00 0.00 57 1009.0
20210802063051 82 90 0.0 0.0 0.00 0.00 0.00 56 1009.0
20210802061546 84 90 0.0 0.0 0.00 0.00 0.00 54 1009.0
20210802060037 86 90 0.0 0.0 0.00 0.00 0.00 46 1008.8
20210802054509 87 95 1.0 3.0 0.00 0.00 0.00 43 1008.9
20210802053014 87 108 1.0 3.0 0.00 0.00 0.00 43 1008.8
20210802051536 86 101 0.0 1.0 0.00 0.00 0.00 44 1009.0
20210802050102 86 296 0.0 1.0 0.00 0.00 0.00 45 1008.9
20210802044523 85 106 0.0 2.0 0.00 0.00 0.00 46 1008.7
20210802043009 84 24 0.0 0.0 0.00 0.00 0.00 50 1008.8
20210802041533 86 23 0.0 0.0 0.00 0.00 0.00 50 1008.7
20210802040006 87 122 0.0 0.0 0.00 0.00 0.00 43 1008.6
20210802034510 89 108 0.0 0.0 0.00 0.00 0.00 40 1008.3
20210802033005 89 312 0.0 5.0 0.00 0.00 0.00 40 1007.9
20210802031541 90 341 3.0 8.0 0.00 0.00 0.00 39 1007.8
20210802030004 90 324 1.0 7.0 0.00 0.00 0.00 39 1007.7
20210802024511 90 309 3.0 10.0 0.00 0.00 0.00 38 1007.6
20210802023009 89 323 1.0 5.0 0.00 0.00 0.00 40 1007.3
20210802020420 92 334 0.0 1.0 0.00 0.00 0.00 38 1007.0
20210802014641 92 304 1.0 3.0 0.00 0.00 0.00 38 1006.9
20210802013311 93 319 2.0 6.0 0.00 0.00 0.00 36 1006.8
20210802011831 94 330 4.0 7.0 0.00 0.00 0.00 34 1006.7
20210802010258 94 339 3.0 6.0 0.00 0.00 0.00 35 1006.7
20210802004728 95 330 4.0 8.0 0.00 0.00 0.00 35 1006.7
20210802003200 94 324 3.0 7.0 0.00 0.00 0.00 35 1006.8
20210802001640 96 300 5.0 10.0 0.00 0.00 0.00 33 1006.7
20210802000124 96 281 4.0 8.0 0.00 0.00 0.00 33 1006.8
20210801234627 97 311 4.0 13.0 0.00 0.00 0.00 33 1006.8
20210801233205 96 297 5.0 10.0 0.00 0.00 0.00 33 1007.0
20210801231630 97 266 2.0 10.0 0.00 0.00 0.00 34 1007.0
20210801230151 96 303 3.0 8.0 0.00 0.00 0.00 35 1007.3
20210801224556 97 333 4.0 11.0 0.00 0.00 0.00 34 1007.5
20210801223241 96 278 3.0 9.0 0.00 0.00 0.00 35 1007.7
20210801221637 97 288 3.0 8.0 0.00 0.00 0.00 35 1007.9
20210801220127 96 289 4.0 8.0 0.00 0.00 0.00 35 1008.1
20210801214612 96 291 3.0 9.0 0.00 0.00 0.00 34 1008.2
20210801213051 96 313 5.0 9.0 0.00 0.00 0.00 36 1008.4
20210801211652 95 265 1.0 8.0 0.00 0.00 0.00 36 1008.5
20210801210122 95 342 2.0 8.0 0.00 0.00 0.00 36 1008.7
20210801204622 96 256 2.0 8.0 0.00 0.00 0.00 35 1008.7
20210801201543 95 272 0.0 6.0 0.00 0.00 0.00 36 1008.9
20210801200050 96 311 2.0 7.0 0.00 0.00 0.00 36 1009.2
20210801194555 94 359 3.0 7.0 0.00 0.00 0.00 41 1009.6
20210801193034 94 311 2.0 4.0 0.00 0.00 0.00 41 1009.8
20210801191526 92 338 0.0 6.0 0.00 0.00 0.00 41 1010.0
20210801190122 92 333 0.0 4.0 0.00 0.00 0.00 40 1010.2
20210801184559 93 271 2.0 5.0 0.00 0.00 0.00 42 1010.3
20210801183017 90 108 0.0 4.0 0.00 0.00 0.00 44 1010.6
20210801181511 91 233 0.0 4.0 0.00 0.00 0.00 43 1010.8
20210801180012 90 320 2.0 4.0 0.00 0.00 0.00 45 1010.9
20210801174508 90 122 0.0 3.0 0.00 0.00 0.00 47 1011.1
20210801173016 89 263 0.0 3.0 0.00 0.00 0.00 47 1011.2
20210801171503 88 326 0.0 4.0 0.00 0.00 0.00 49 1011.3
20210801170235 87 226 0.0 3.0 0.00 0.00 0.00 50 1011.3
20210801164739 88 279 0.0 1.0 0.00 0.00 0.00 51 1011.3
20210801163139 87 254 0.0 2.0 0.00 0.00 0.00 51 1011.3
20210801161726 86 258 0.0 1.0 0.00 0.00 0.00 55 1011.3
20210801160152 85 258 0.0 1.0 0.00 0.00 0.00 59 1011.4
20210801154646 84 222 0.0 1.0 0.00 0.00 0.00 62 1011.4
20210801153136 83 288 0.0 0.0 0.00 0.00 0.00 63 1011.3
20210801151753 82 250 0.0 0.0 0.00 0.00 0.00 66 1011.4
20210801150108 82 250 0.0 0.0 0.00 0.00 0.00 67 1011.3
20210801144621 83 132 0.0 0.0 0.00 0.00 0.00 66 1011.4
20210801143118 83 133 0.0 0.0 0.00 0.00 0.00 66 1011.2
20210801141550 81 133 0.0 0.0 0.00 0.00 0.00 70 1011.1
20210801140102 78 329 0.0 0.0 0.00 0.00 0.00 72 1011.0
20210801134616 77 329 0.0 1.0 0.00 0.00 0.00 75 1011.0
20210801133113 76 329 0.0 1.0 0.00 0.00 0.00 77 1010.8
20210801131601 75 105 0.0 0.0 0.00 0.00 0.00 80 1010.6
20210801130106 75 105 0.0 0.0 0.00 0.00 0.00 80 1010.5
20210801124551 75 105 0.0 0.0 0.00 0.00 0.00 79 1010.5
20210801123137 75 105 0.0 0.0 0.00 0.00 0.00 79 1010.4
20210801121631 76 105 0.0 0.0 0.00 0.00 0.00 78 1010.2
20210801120057 76 105 0.0 0.0 0.00 0.00 0.00 77 1010.1
20210801114607 77 105 0.0 0.0 0.00 0.00 0.00 76 1010.0
20210801113034 77 105 0.0 0.0 0.00 0.00 0.00 74 1010.0
20210801111516 78 105 0.0 0.0 0.00 0.00 0.00 73 1009.9
20210801110017 78 105 0.0 0.0 0.00 0.00 0.00 69 1009.8
20210801104538 77 105 0.0 0.0 0.00 0.00 0.00 71 1009.7
20210801103022 77 105 0.0 0.0 0.00 0.00 0.00 70 1009.6
20210801101513 77 105 0.0 0.0 0.00 0.00 0.00 70 1009.7
20210801100040 77 105 0.0 0.0 0.00 0.00 0.00 72 1009.7
20210801094510 78 105 0.0 0.0 0.00 0.00 0.00 71 1009.8
20210801093011 78 105 0.0 0.0 0.00 0.00 0.00 70 1009.8
20210801091520 78 105 0.0 0.0 0.00 0.00 0.00 69 1009.9
20210801090006 78 105 0.0 0.0 0.00 0.00 0.00 69 1010.0